RZO125 LPPT-LPLA

Flight info

Callsign RZO125
Flight time 2h 1m
Altitude 35000
Route ZIFOG1N ZIFOG DCT GUNTI/M078F350 T25 LENSI DCT BAVAS H121 LM DCT
Aircraft A333/H-SDE3GHIJ2J3J5M1RVWXY/LB2D1

Departure

Time 2026-04-27 11:51
Airport Lisbon Humberto Delgado Airport (LPPT)

Arrival

Time 2026-04-27 13:53
Airport Lajes Airport (LPLA)
Time Latitude Longitude Altitude Speed Heading
2026-04-27 11:31 38.77120 -9.13697 342 ft 0 kts 201°
2026-04-27 11:44 38.77124 -9.13695 342 ft 2 kts 201°
2026-04-27 11:44 38.77138 -9.13688 342 ft 2 kts 201°
2026-04-27 11:44 38.77152 -9.13681 342 ft 2 kts 200°
2026-04-27 11:44 38.77166 -9.13674 342 ft 2 kts 200°
2026-04-27 11:45 38.77180 -9.13668 342 ft 2 kts 200°
2026-04-27 11:45 38.77190 -9.13663 342 ft 2 kts 200°
2026-04-27 11:45 38.77202 -9.13649 341 ft 0 kts 259°
2026-04-27 11:45 38.77203 -9.13643 341 ft 0 kts 259°
2026-04-27 11:47 38.77203 -9.13645 341 ft 2 kts 259°
2026-04-27 11:47 38.77193 -9.13708 343 ft 10 kts 257°
2026-04-27 11:47 38.77168 -9.13838 345 ft 17 kts 248°
2026-04-27 11:48 38.77070 -9.13925 346 ft 17 kts 205°
2026-04-27 11:48 38.76955 -9.13992 344 ft 18 kts 203°
2026-04-27 11:48 38.76834 -9.14057 342 ft 19 kts 203°
2026-04-27 11:48 38.76711 -9.14122 342 ft 18 kts 202°
2026-04-27 11:49 38.76602 -9.14201 341 ft 16 kts 240°
2026-04-27 11:49 38.76627 -9.14338 341 ft 15 kts 294°
2026-04-27 11:49 38.76651 -9.14380 343 ft 2 kts 346°
2026-04-27 11:49 38.76666 -9.14376 343 ft 2 kts 16°
2026-04-27 11:50 38.76689 -9.14365 343 ft 0 kts 22°
2026-04-27 11:51 38.76808 -9.14299 344 ft 51 kts 24°
2026-04-27 11:51 38.77370 -9.14001 356 ft 121 kts 23°
2026-04-27 11:51 38.79383 -9.12888 1128 ft 170 kts 24°
2026-04-27 11:52 38.80483 -9.12304 1870 ft 175 kts 24°
2026-04-27 11:52 38.81609 -9.11706 2627 ft 182 kts 26°
2026-04-27 11:52 38.82774 -9.10964 3384 ft 195 kts 30°
2026-04-27 11:52 38.84004 -9.10200 4248 ft 204 kts 19°
2026-04-27 11:53 38.85435 -9.10064 5068 ft 219 kts 352°
2026-04-27 11:53 38.86850 -9.10889 5899 ft 236 kts 322°
2026-04-27 11:53 38.87797 -9.12590 6728 ft 252 kts 292°
2026-04-27 11:53 38.88048 -9.14916 7239 ft 280 kts 270°
2026-04-27 11:54 38.88322 -9.17494 7792 ft 303 kts 286°
2026-04-27 11:54 38.88791 -9.20207 8332 ft 329 kts 282°
2026-04-27 11:54 38.89222 -9.23196 8892 ft 352 kts 281°
2026-04-27 11:54 38.89664 -9.26368 9623 ft 368 kts 281°
2026-04-27 11:55 38.90117 -9.29637 10413 ft 377 kts 281°
2026-04-27 11:55 38.90562 -9.32870 11584 ft 368 kts 281°
2026-04-27 11:55 38.90998 -9.36031 12684 ft 360 kts 280°
2026-04-27 11:55 38.91425 -9.39142 13749 ft 353 kts 280°
2026-04-27 11:56 38.91848 -9.42231 14484 ft 357 kts 280°
2026-04-27 11:56 38.92274 -9.45350 15210 ft 360 kts 280°
2026-04-27 11:56 38.92710 -9.48544 15960 ft 363 kts 280°
2026-04-27 11:56 38.93142 -9.51714 16651 ft 366 kts 280°
2026-04-27 11:57 38.93575 -9.54903 17307 ft 370 kts 280°
2026-04-27 11:57 38.94019 -9.58182 18002 ft 373 kts 280°
2026-04-27 11:57 38.94463 -9.61456 18659 ft 376 kts 279°
2026-04-27 11:57 38.94907 -9.64750 19406 ft 378 kts 279°
2026-04-27 11:58 38.95354 -9.68072 20065 ft 380 kts 279°
2026-04-27 11:58 38.95805 -9.71424 20712 ft 382 kts 279°
2026-04-27 11:58 38.96256 -9.74780 21313 ft 385 kts 279°
2026-04-27 11:58 38.96706 -9.78147 21890 ft 388 kts 279°
2026-04-27 11:59 38.97158 -9.81536 22445 ft 390 kts 279°
2026-04-27 11:59 38.97622 -9.85013 23010 ft 393 kts 279°
2026-04-27 11:59 38.98077 -9.88439 23521 ft 396 kts 279°
2026-04-27 11:59 38.98542 -9.91942 24057 ft 399 kts 279°
2026-04-27 12:00 38.99005 -9.95450 24560 ft 402 kts 279°
2026-04-27 12:00 38.99473 -9.98992 25069 ft 405 kts 278°
2026-04-27 12:00 38.99942 -10.02560 25581 ft 407 kts 278°
2026-04-27 12:00 39.00410 -10.06117 26090 ft 409 kts 278°
2026-04-27 12:01 39.00887 -10.09760 26600 ft 412 kts 278°
2026-04-27 12:01 39.01359 -10.13379 27098 ft 414 kts 278°
2026-04-27 12:01 39.01830 -10.16989 27568 ft 417 kts 278°
2026-04-27 12:01 39.02310 -10.20686 28028 ft 420 kts 278°
2026-04-27 12:02 39.02786 -10.24356 28488 ft 422 kts 278°
2026-04-27 12:02 39.03270 -10.28109 28933 ft 425 kts 278°
2026-04-27 12:02 39.03751 -10.31834 29381 ft 428 kts 278°
2026-04-27 12:02 39.04238 -10.35619 29845 ft 431 kts 277°
2026-04-27 12:03 39.04726 -10.39422 30285 ft 434 kts 277°
2026-04-27 12:03 39.05219 -10.43277 30714 ft 437 kts 277°
2026-04-27 12:03 39.05708 -10.47108 31183 ft 439 kts 277°
2026-04-27 12:03 39.06201 -10.50990 31576 ft 442 kts 277°
2026-04-27 12:04 39.06699 -10.54918 31975 ft 445 kts 277°
2026-04-27 12:04 39.07193 -10.58821 32389 ft 447 kts 277°
2026-04-27 12:04 39.07692 -10.62770 32772 ft 449 kts 277°
2026-04-27 12:04 39.08166 -10.66745 33142 ft 450 kts 273°
2026-04-27 12:05 39.08242 -10.70732 33457 ft 450 kts 267°
2026-04-27 12:05 39.08232 -10.74744 33827 ft 452 kts 267°
2026-04-27 12:05 39.08224 -10.78759 34149 ft 454 kts 268°
2026-04-27 12:05 39.08216 -10.82831 34422 ft 456 kts 268°
2026-04-27 12:06 39.08207 -10.86923 34635 ft 458 kts 268°
2026-04-27 12:06 39.08198 -10.90970 34837 ft 460 kts 268°
2026-04-27 12:06 39.08186 -10.95115 35018 ft 461 kts 268°
2026-04-27 12:07 39.08159 -11.03392 35022 ft 463 kts 268°
2026-04-27 12:07 39.08127 -11.11623 35040 ft 463 kts 268°
2026-04-27 12:08 39.08088 -11.19845 35035 ft 463 kts 268°
2026-04-27 12:08 39.08043 -11.28156 35037 ft 464 kts 268°
2026-04-27 12:09 39.07993 -11.36435 35034 ft 464 kts 268°
2026-04-27 12:09 39.07937 -11.44681 35039 ft 464 kts 268°
2026-04-27 12:10 39.07875 -11.52985 35042 ft 463 kts 268°
2026-04-27 12:10 39.07807 -11.61230 35039 ft 463 kts 268°
2026-04-27 12:11 39.07733 -11.69457 35043 ft 463 kts 267°
2026-04-27 12:11 39.07654 -11.77721 35046 ft 462 kts 267°
2026-04-27 12:12 39.07568 -11.85980 35049 ft 464 kts 268°
2026-04-27 12:12 39.07477 -11.94255 35052 ft 465 kts 268°
2026-04-27 12:13 39.07380 -12.02580 35057 ft 465 kts 268°
2026-04-27 12:13 39.07277 -12.10817 35057 ft 465 kts 268°
2026-04-27 12:14 39.07169 -12.19102 35061 ft 464 kts 268°
2026-04-27 12:14 39.07054 -12.27381 35066 ft 463 kts 267°
2026-04-27 12:15 39.06933 -12.35620 35070 ft 465 kts 268°
2026-04-27 12:15 39.06807 -12.43946 35069 ft 466 kts 268°
2026-04-27 12:16 39.06674 -12.52221 35072 ft 465 kts 268°
2026-04-27 12:16 39.06536 -12.60498 35070 ft 465 kts 268°
2026-04-27 12:17 39.06392 -12.68770 35079 ft 465 kts 267°
2026-04-27 12:17 39.06242 -12.77080 35086 ft 464 kts 267°
2026-04-27 12:18 39.06087 -12.85316 35082 ft 464 kts 267°
2026-04-27 12:18 39.05924 -12.93628 35085 ft 465 kts 267°
2026-04-27 12:19 39.05757 -13.01878 35098 ft 465 kts 267°
2026-04-27 12:19 39.05583 -13.10196 35091 ft 465 kts 267°
2026-04-27 12:20 39.05404 -13.18448 35084 ft 465 kts 267°
2026-04-27 12:20 39.05219 -13.26735 35102 ft 464 kts 267°
2026-04-27 12:21 39.05029 -13.34996 35098 ft 465 kts 267°
2026-04-27 12:21 39.04832 -13.43244 35098 ft 465 kts 267°
2026-04-27 12:22 39.04630 -13.51531 35106 ft 465 kts 267°
2026-04-27 12:22 39.04420 -13.59840 35103 ft 465 kts 267°
2026-04-27 12:23 39.04206 -13.68120 35101 ft 466 kts 267°
2026-04-27 12:23 39.03986 -13.76380 35107 ft 466 kts 267°
2026-04-27 12:24 39.03759 -13.84709 35097 ft 466 kts 267°
2026-04-27 12:24 39.03527 -13.92995 35119 ft 465 kts 267°
2026-04-27 12:25 39.03289 -14.01254 35117 ft 464 kts 267°
2026-04-27 12:25 39.03046 -14.09522 35106 ft 465 kts 267°
2026-04-27 12:26 39.02797 -14.17808 35113 ft 464 kts 267°
2026-04-27 12:26 39.02541 -14.26062 35113 ft 464 kts 267°
2026-04-27 12:27 39.02278 -14.34374 35116 ft 465 kts 267°
2026-04-27 12:27 39.02013 -14.42601 35117 ft 465 kts 267°
2026-04-27 12:28 39.01740 -14.50897 35125 ft 465 kts 267°
2026-04-27 12:28 39.01460 -14.59201 35125 ft 465 kts 267°
2026-04-27 12:29 39.01176 -14.67422 35123 ft 465 kts 267°
2026-04-27 12:29 39.00886 -14.75703 35138 ft 464 kts 267°
2026-04-27 12:30 39.00591 -14.83945 35128 ft 464 kts 267°
2026-04-27 12:30 39.00290 -14.92208 35128 ft 465 kts 267°
2026-04-27 12:31 38.99990 -15.00469 35134 ft 464 kts 268°
2026-04-27 12:31 39.00178 -15.08755 35140 ft 464 kts 271°
2026-04-27 12:32 39.00351 -15.17033 35134 ft 464 kts 271°
2026-04-27 12:32 39.00514 -15.25314 35134 ft 465 kts 271°
2026-04-27 12:33 39.00668 -15.33535 35142 ft 464 kts 271°
2026-04-27 12:33 39.00818 -15.41815 35129 ft 464 kts 271°
2026-04-27 12:34 39.00962 -15.50071 35131 ft 463 kts 271°
2026-04-27 12:34 39.01099 -15.58286 35138 ft 463 kts 271°
2026-04-27 12:35 39.01232 -15.66543 35134 ft 463 kts 271°
2026-04-27 12:35 39.01357 -15.74758 35148 ft 462 kts 271°
2026-04-27 12:36 39.01479 -15.83047 35145 ft 463 kts 271°
2026-04-27 12:36 39.01593 -15.91257 35144 ft 464 kts 271°
2026-04-27 12:37 39.01702 -15.99498 35150 ft 463 kts 271°
2026-04-27 12:37 39.01805 -16.07782 35159 ft 463 kts 271°
2026-04-27 12:38 39.01903 -16.16044 35157 ft 463 kts 271°
2026-04-27 12:38 39.01994 -16.24272 35157 ft 463 kts 271°
2026-04-27 12:39 39.02079 -16.32481 35162 ft 463 kts 271°
2026-04-27 12:39 39.02159 -16.40768 35173 ft 463 kts 271°
2026-04-27 12:40 39.02233 -16.48969 35176 ft 463 kts 271°
2026-04-27 12:40 39.02301 -16.57208 35173 ft 463 kts 271°
2026-04-27 12:41 39.02363 -16.65458 35181 ft 462 kts 271°
2026-04-27 12:41 39.02420 -16.73687 35180 ft 461 kts 271°
2026-04-27 12:42 39.02471 -16.81907 35188 ft 461 kts 271°
2026-04-27 12:42 39.02516 -16.90085 35189 ft 461 kts 271°
2026-04-27 12:43 39.02554 -16.98327 35195 ft 462 kts 271°
2026-04-27 12:43 39.02588 -17.06587 35195 ft 463 kts 271°
2026-04-27 12:44 39.02616 -17.14847 35189 ft 463 kts 271°
2026-04-27 12:44 39.02638 -17.23088 35191 ft 463 kts 271°
2026-04-27 12:45 39.02654 -17.31339 35189 ft 462 kts 271°
2026-04-27 12:45 39.02664 -17.39555 35192 ft 461 kts 271°
2026-04-27 12:46 39.02667 -17.47802 35192 ft 462 kts 271°
2026-04-27 12:46 39.02667 -17.56075 35192 ft 464 kts 271°
2026-04-27 12:47 39.02660 -17.64313 35191 ft 464 kts 271°
2026-04-27 12:47 39.02647 -17.72586 35192 ft 464 kts 271°
2026-04-27 12:48 39.02628 -17.80799 35191 ft 463 kts 271°
2026-04-27 12:48 39.02603 -17.89042 35189 ft 462 kts 271°
2026-04-27 12:49 39.02572 -17.97312 35190 ft 463 kts 271°
2026-04-27 12:49 39.02536 -18.05552 35190 ft 463 kts 271°
2026-04-27 12:50 39.02494 -18.13786 35188 ft 464 kts 271°
2026-04-27 12:50 39.02446 -18.22099 35187 ft 465 kts 271°
2026-04-27 12:51 39.02393 -18.30359 35183 ft 465 kts 271°
2026-04-27 12:51 39.02333 -18.38637 35189 ft 465 kts 271°
2026-04-27 12:52 39.02267 -18.46902 35187 ft 465 kts 271°
2026-04-27 12:52 39.02196 -18.55188 35189 ft 466 kts 271°
2026-04-27 12:53 39.02077 -18.67666 35186 ft 467 kts 271°
2026-04-27 12:53 39.01991 -18.75989 35187 ft 468 kts 271°
2026-04-27 12:54 39.01898 -18.84337 35189 ft 468 kts 271°
2026-04-27 12:54 39.01799 -18.92688 35190 ft 468 kts 271°
2026-04-27 12:55 39.01694 -19.01056 35192 ft 469 kts 271°
2026-04-27 12:55 39.01583 -19.09401 35180 ft 469 kts 271°
2026-04-27 12:56 39.01466 -19.17741 35197 ft 471 kts 272°
2026-04-27 12:56 39.01344 -19.26068 35211 ft 467 kts 272°
2026-04-27 12:57 39.01216 -19.34445 35186 ft 468 kts 272°
2026-04-27 12:57 39.01082 -19.42749 35175 ft 467 kts 272°
2026-04-27 12:58 39.00943 -19.51017 35190 ft 465 kts 272°
2026-04-27 12:58 39.00796 -19.59322 35194 ft 465 kts 272°
2026-04-27 12:59 39.00646 -19.67606 35188 ft 465 kts 271°
2026-04-27 12:59 39.00488 -19.75915 35173 ft 465 kts 272°
2026-04-27 13:00 39.00326 -19.84157 35181 ft 465 kts 272°
2026-04-27 13:00 39.00158 -19.92451 35193 ft 464 kts 272°
2026-04-27 13:01 38.99998 -20.00671 35194 ft 463 kts 274°
2026-04-27 13:01 39.00134 -20.08924 35197 ft 461 kts 275°
2026-04-27 13:02 39.00257 -20.17138 35196 ft 461 kts 275°
2026-04-27 13:02 39.00371 -20.25306 35204 ft 460 kts 275°
2026-04-27 13:03 39.00478 -20.33527 35208 ft 459 kts 275°
2026-04-27 13:03 39.00581 -20.41685 35209 ft 458 kts 275°
2026-04-27 13:04 39.00677 -20.49808 35210 ft 458 kts 275°
2026-04-27 13:04 39.00767 -20.57981 35213 ft 457 kts 275°
2026-04-27 13:05 39.00852 -20.66115 35211 ft 456 kts 274°
2026-04-27 13:05 39.00931 -20.74268 35196 ft 456 kts 274°
2026-04-27 13:06 39.01004 -20.82349 35212 ft 456 kts 275°
2026-04-27 13:06 39.01071 -20.90473 35211 ft 455 kts 275°
2026-04-27 13:07 39.01134 -20.98548 35203 ft 454 kts 274°
2026-04-27 13:07 39.01189 -21.06627 35211 ft 454 kts 274°
2026-04-27 13:08 39.01240 -21.14707 35207 ft 453 kts 274°
2026-04-27 13:08 39.01285 -21.22798 35207 ft 452 kts 274°
2026-04-27 13:09 39.01324 -21.30877 35208 ft 453 kts 274°
2026-04-27 13:09 39.01358 -21.38887 35207 ft 452 kts 274°
2026-04-27 13:10 39.01386 -21.46981 35207 ft 453 kts 274°
2026-04-27 13:10 39.01409 -21.55027 35207 ft 453 kts 274°
2026-04-27 13:11 39.01426 -21.63131 35208 ft 452 kts 274°
2026-04-27 13:11 39.01437 -21.71148 35212 ft 453 kts 273°
2026-04-27 13:12 39.01443 -21.79230 35210 ft 452 kts 273°
2026-04-27 13:12 39.01444 -21.87242 35211 ft 452 kts 273°
2026-04-27 13:13 39.01439 -21.95344 35211 ft 452 kts 273°
2026-04-27 13:13 39.01428 -22.03395 35212 ft 453 kts 273°
2026-04-27 13:14 39.01412 -22.11442 35210 ft 452 kts 273°
2026-04-27 13:14 39.01390 -22.19483 35213 ft 451 kts 272°
2026-04-27 13:15 39.01363 -22.27497 35212 ft 451 kts 272°
2026-04-27 13:15 39.01331 -22.35580 35212 ft 451 kts 272°
2026-04-27 13:16 39.01292 -22.43599 35211 ft 451 kts 272°
2026-04-27 13:16 39.01249 -22.51624 35208 ft 451 kts 272°
2026-04-27 13:17 39.01199 -22.59643 35206 ft 451 kts 272°
2026-04-27 13:17 39.01144 -22.67705 35208 ft 451 kts 272°
2026-04-27 13:18 39.01084 -22.75744 35212 ft 451 kts 272°
2026-04-27 13:18 39.01019 -22.83755 35206 ft 450 kts 272°
2026-04-27 13:19 39.00948 -22.91790 35207 ft 450 kts 271°
2026-04-27 13:19 39.00870 -22.99830 35213 ft 450 kts 271°
2026-04-27 13:20 39.00789 -23.07840 35226 ft 450 kts 271°
2026-04-27 13:20 39.00701 -23.15838 35203 ft 449 kts 271°
2026-04-27 13:21 39.00441 -23.23867 35197 ft 452 kts 266°
2026-04-27 13:21 38.99733 -23.31793 35216 ft 451 kts 266°
2026-04-27 13:22 38.98980 -23.39747 35201 ft 449 kts 264°
2026-04-27 13:22 38.98063 -23.47658 35202 ft 450 kts 264°
2026-04-27 13:23 38.97127 -23.55601 35197 ft 449 kts 264°
2026-04-27 13:23 38.96189 -23.63489 35200 ft 449 kts 264°
2026-04-27 13:24 38.95241 -23.71410 35197 ft 450 kts 263°
2026-04-27 13:24 38.94286 -23.79342 35198 ft 450 kts 263°
2026-04-27 13:25 38.93333 -23.87215 35193 ft 449 kts 263°
2026-04-27 13:25 38.92374 -23.95092 35176 ft 448 kts 263°
2026-04-27 13:26 38.91407 -24.02988 35198 ft 447 kts 263°
2026-04-27 13:26 38.90438 -24.10853 35196 ft 446 kts 263°
2026-04-27 13:27 38.89473 -24.18651 35190 ft 446 kts 263°
2026-04-27 13:27 38.88497 -24.26488 35172 ft 442 kts 263°
2026-04-27 13:28 38.88017 -24.30302 34545 ft 437 kts 263°
2026-04-27 13:28 38.87534 -24.34172 33164 ft 445 kts 263°
2026-04-27 13:28 38.87043 -24.38073 31730 ft 453 kts 263°
2026-04-27 13:28 38.86543 -24.42047 30347 ft 459 kts 263°
2026-04-27 13:29 38.86031 -24.46087 29095 ft 462 kts 263°
2026-04-27 13:29 38.85525 -24.50064 28890 ft 442 kts 263°
2026-04-27 13:29 38.85044 -24.53836 28899 ft 420 kts 263°
2026-04-27 13:29 38.84584 -24.57436 28500 ft 410 kts 263°
2026-04-27 13:30 38.84126 -24.61041 27752 ft 409 kts 263°
2026-04-27 13:30 38.83669 -24.64611 27124 ft 405 kts 263°
2026-04-27 13:30 38.83213 -24.68149 26508 ft 402 kts 262°
2026-04-27 13:30 38.82762 -24.71652 25937 ft 397 kts 262°
2026-04-27 13:31 38.82317 -24.75108 25172 ft 399 kts 262°
2026-04-27 13:31 38.81854 -24.78695 24804 ft 418 kts 261°
2026-04-27 13:31 38.81374 -24.82387 24489 ft 424 kts 261°
2026-04-27 13:31 38.80890 -24.86095 24108 ft 417 kts 261°
2026-04-27 13:32 38.80419 -24.89711 23721 ft 411 kts 261°
2026-04-27 13:32 38.79952 -24.93288 23377 ft 409 kts 261°
2026-04-27 13:32 38.79485 -24.96850 23072 ft 406 kts 261°
2026-04-27 13:32 38.79021 -25.00373 22779 ft 405 kts 261°
2026-04-27 13:33 38.78549 -25.03957 22477 ft 404 kts 261°
2026-04-27 13:33 38.78087 -25.07454 22179 ft 403 kts 261°
2026-04-27 13:33 38.77621 -25.10976 21879 ft 402 kts 261°
2026-04-27 13:33 38.77156 -25.14482 21591 ft 400 kts 261°
2026-04-27 13:34 38.76685 -25.18020 21282 ft 401 kts 261°
2026-04-27 13:34 38.76220 -25.21508 20981 ft 397 kts 260°
2026-04-27 13:34 38.75761 -25.24952 20683 ft 397 kts 260°
2026-04-27 13:34 38.75293 -25.28443 20382 ft 395 kts 260°
2026-04-27 13:35 38.74828 -25.31902 20082 ft 393 kts 260°
2026-04-27 13:35 38.74373 -25.35293 19787 ft 391 kts 260°
2026-04-27 13:35 38.73912 -25.38707 19490 ft 391 kts 260°
2026-04-27 13:35 38.73452 -25.42113 19194 ft 388 kts 260°
2026-04-27 13:36 38.72991 -25.45512 18896 ft 388 kts 260°
2026-04-27 13:36 38.72527 -25.48928 18598 ft 385 kts 260°
2026-04-27 13:36 38.72072 -25.52272 18302 ft 385 kts 259°
2026-04-27 13:36 38.71615 -25.55623 18007 ft 384 kts 259°
2026-04-27 13:37 38.71158 -25.58973 17711 ft 383 kts 259°
2026-04-27 13:37 38.70701 -25.62314 17410 ft 378 kts 259°
2026-04-27 13:37 38.70247 -25.65611 17092 ft 367 kts 258°
2026-04-27 13:37 38.69813 -25.68770 16764 ft 357 kts 258°
2026-04-27 13:38 38.69392 -25.71823 16439 ft 351 kts 258°
2026-04-27 13:38 38.68968 -25.74885 16120 ft 351 kts 258°
2026-04-27 13:38 38.68545 -25.77940 15802 ft 349 kts 258°
2026-04-27 13:38 38.68123 -25.80989 15483 ft 347 kts 258°
2026-04-27 13:39 38.67701 -25.84023 15162 ft 347 kts 258°
2026-04-27 13:39 38.67282 -25.87036 14844 ft 345 kts 258°
2026-04-27 13:39 38.66859 -25.90067 14523 ft 343 kts 258°
2026-04-27 13:39 38.66440 -25.93057 14205 ft 343 kts 258°
2026-04-27 13:40 38.66023 -25.96042 13888 ft 340 kts 258°
2026-04-27 13:40 38.65608 -25.98999 13568 ft 339 kts 257°
2026-04-27 13:40 38.65195 -26.01931 13258 ft 338 kts 258°
2026-04-27 13:40 38.64775 -26.04904 12939 ft 337 kts 258°
2026-04-27 13:41 38.64369 -26.07792 12629 ft 334 kts 258°
2026-04-27 13:41 38.63957 -26.10701 12315 ft 332 kts 258°
2026-04-27 13:41 38.63544 -26.13621 11997 ft 330 kts 258°
2026-04-27 13:41 38.63136 -26.16491 11680 ft 329 kts 257°
2026-04-27 13:42 38.62731 -26.19348 11363 ft 326 kts 257°
2026-04-27 13:42 38.62325 -26.22189 11048 ft 325 kts 257°
2026-04-27 13:42 38.61923 -26.25009 10731 ft 323 kts 257°
2026-04-27 13:42 38.61524 -26.27797 10416 ft 321 kts 257°
2026-04-27 13:43 38.61126 -26.30583 10100 ft 319 kts 257°
2026-04-27 13:43 38.60728 -26.33358 9781 ft 317 kts 257°
2026-04-27 13:43 38.60327 -26.36141 9459 ft 316 kts 257°
2026-04-27 13:43 38.59935 -26.38869 9142 ft 313 kts 257°
2026-04-27 13:44 38.59545 -26.41571 8822 ft 312 kts 257°
2026-04-27 13:44 38.59152 -26.44296 8465 ft 311 kts 257°
2026-04-27 13:44 38.58763 -26.46983 8092 ft 309 kts 257°
2026-04-27 13:44 38.58374 -26.49661 7738 ft 306 kts 257°
2026-04-27 13:45 38.57989 -26.52326 7417 ft 304 kts 257°
2026-04-27 13:45 38.57601 -26.54985 7095 ft 303 kts 257°
2026-04-27 13:45 38.57222 -26.57598 6776 ft 301 kts 257°
2026-04-27 13:45 38.56839 -26.60223 6453 ft 300 kts 257°
2026-04-27 13:46 38.56461 -26.62811 6132 ft 298 kts 257°
2026-04-27 13:46 38.56081 -26.65402 5810 ft 297 kts 256°
2026-04-27 13:46 38.55702 -26.67987 5487 ft 295 kts 256°
2026-04-27 13:46 38.55323 -26.70569 5163 ft 294 kts 256°
2026-04-27 13:47 38.54952 -26.73093 4845 ft 292 kts 256°
2026-04-27 13:47 38.54573 -26.75662 4518 ft 291 kts 256°
2026-04-27 13:47 38.54204 -26.78164 4282 ft 289 kts 256°
2026-04-27 13:47 38.53830 -26.80701 4085 ft 289 kts 256°
2026-04-27 13:48 38.53749 -26.83242 3870 ft 294 kts 276°
2026-04-27 13:48 38.54513 -26.85685 3663 ft 302 kts 300°
2026-04-27 13:48 38.56021 -26.87580 3500 ft 305 kts 320°
2026-04-27 13:48 38.57632 -26.89305 3501 ft 297 kts 315°
2026-04-27 13:49 38.59123 -26.91057 3480 ft 283 kts 313°
2026-04-27 13:49 38.60504 -26.92715 3478 ft 269 kts 313°
2026-04-27 13:49 38.61970 -26.94159 3480 ft 257 kts 321°
2026-04-27 13:49 38.63279 -26.95579 3433 ft 240 kts 313°
2026-04-27 13:50 38.64513 -26.96976 3047 ft 238 kts 314°
2026-04-27 13:50 38.65751 -26.98369 2503 ft 234 kts 314°
2026-04-27 13:50 38.67021 -26.99646 2109 ft 236 kts 320°
2026-04-27 13:50 38.68304 -27.00914 1953 ft 223 kts 317°
2026-04-27 13:51 38.69452 -27.02088 1937 ft 198 kts 316°
2026-04-27 13:51 38.70474 -27.03150 1642 ft 184 kts 314°
2026-04-27 13:51 38.71410 -27.04187 1356 ft 175 kts 316°
2026-04-27 13:51 38.72377 -27.05056 1015 ft 163 kts 321°
2026-04-27 13:52 38.73225 -27.05944 830 ft 155 kts 311°
2026-04-27 13:52 38.74032 -27.06844 599 ft 153 kts 318°
2026-04-27 13:52 38.74871 -27.07703 357 ft 153 kts 317°
2026-04-27 13:52 38.75695 -27.08563 211 ft 145 kts 317°
2026-04-27 13:53 38.76895 -27.09825 173 ft 89 kts 322°
2026-04-27 13:53 38.77169 -27.10109 173 ft 15 kts 324°
2026-04-27 13:53 38.77215 -27.10095 173 ft 8 kts 54°
2026-04-27 13:54 38.77262 -27.10015 170 ft 9 kts 59°
2026-04-27 13:54 38.77228 -27.09929 169 ft 14 kts 139°
2026-04-27 13:54 38.77135 -27.09834 169 ft 19 kts 140°
2026-04-27 13:54 38.77037 -27.09730 170 ft 18 kts 140°
2026-04-27 13:55 38.76936 -27.09622 172 ft 20 kts 141°
2026-04-27 13:55 38.76813 -27.09494 175 ft 24 kts 141°
2026-04-27 13:55 38.76678 -27.09354 180 ft 26 kts 141°
2026-04-27 13:55 38.76550 -27.09219 183 ft 22 kts 139°
2026-04-27 13:56 38.76429 -27.09094 187 ft 17 kts 143°
2026-04-27 13:56 38.76305 -27.09069 189 ft 20 kts 183°
2026-04-27 13:56 38.76158 -27.09049 192 ft 22 kts 147°
2026-04-27 13:56 38.76029 -27.08918 196 ft 18 kts 142°
2026-04-27 13:57 38.75899 -27.08897 199 ft 20 kts 185°
2026-04-27 13:57 38.75751 -27.08911 203 ft 13 kts 184°
2026-04-27 13:57 38.75700 -27.08905 205 ft 6 kts 154°
2026-04-27 13:57 38.75683 -27.08889 206 ft 2 kts 141°
2026-04-27 13:58 38.75681 -27.08887 206 ft 0 kts 141°